2018-083F (43667 NORAD) Tracking and Keplerian Element Data

This shows tracking and keplerian element data for the satellite.

Feedback or suggestion? Click here.




ElementValue
Catalog43667
Name2018-083F
Epoch Orbit479
Epoch Day332.50559806
Epoch Year2018
RAAN356.4715
Inclination97.6168
Eccentricity0.0177743
Argument of Perigee285.7742
Mean Anonmoly72.3994
Mean Motion15.80224143
Decay Rate0.0014018
L11 43667U 18083F 18332.50559806 .00140180 24528-5 23112-3 0 9993
L22 43667 97.6168 356.4715 0177743 285.7742 72.3994 15.80224143 4794



Live tracking and technical data element details for 2018-083F (NORAD 43667). 2018-083F can be tracked NOW for your location showing map with azimuth and elevation plus other details from your city location.







IsCatalogInMostPopularTable: catalog: 43667, numindb: 420
Update: records affected: 1



GetName: 43667 2018-083F

Hit Count: updated at: Thu, 22 May 2025 02:30:44 GMT